Marrakech, Morocco

5:34 PM WEST on April 26, 2017 (GMT +0100)
Marrakech

Weather History for GMMX - November, 2011

Change the Weather History Date:

Sunday, November 20, 2011

  Actual Average Record
Temperature  
Mean Temperature 56 °F -  
Max Temperature 61 °F 66 °F 82 °F (2006)
Min Temperature 51 °F 45 °F 44 °F (1999)
Degree Days  
Heating Degree Days 9    
Growing Degree Days 6 (Base 50)    
Moisture  
Dew Point 52 °F    
Average Humidity 90    
Maximum Humidity 100    
Minimum Humidity 77    
Precipitation  
Precipitation 0.28 in 0.05 in - ()
Sea Level Pressure  
Sea Level Pressure 29.88 in    
Wind  
Wind Speed 11 mph ()    
Max Wind Speed 23 mph    
Max Gust Speed -    
Visibility 5.3 miles    
Events Rain , Thunderstorm    
Averages and records for this station are not official NWS values.
T = Trace of Precipitation, MM = Missing Value Source: Averaged Metar Reports

Daily Weather History Graph

Daily Weather History Graph

Search for Another Location

Airport or City:

Trip Planner

Search our weather history database for the weather conditions in past years. The results will help you decide how hot, cold, wet, or windy it might be!

Date:

Astronomy

Nov. 20, 2011 Rise Set
Actual Time 7:04 AM WET 5:30 PM WET
Civil Twilight 6:38 AM WET 5:56 PM WET
Nautical Twilight 6:08 AM WET 6:26 PM WET
Astronomical Twilight 5:39 AM WET 6:55 PM WET
Moon 1:36 AM WET (11/20) 1:56 PM WET (11/20)
Length of Visible Light 11h 18m
Length of Day
10h 26m
Waning Crescent, 30% of the Moon is Illuminated
Nov 20
Waning Crescent
Nov 25
New
Dec 2
First Quarter
Dec 10
Full
Dec 18
Last Quarter

Hourly Weather History & Observations

Time (WET) Temp. Dew Point Humidity Pressure Visibility Wind Dir Wind Speed Gust Speed Precip Events Conditions
12:00 AM 55.4 °F 55.4 °F 100% 29.83 in - WSW 4.6 mph - N/A Rain Light Rain
12:30 AM 55.4 °F 55.4 °F 100% 29.83 in 3.1 mi WSW 9.2 mph - N/A Rain Light Rain
1:00 AM 55.4 °F 55.4 °F 100% 29.83 in 3.1 mi WSW 9.2 mph - N/A Rain Light Rain
1:30 AM 55.4 °F 53.6 °F 94% 29.83 in 3.1 mi West 15.0 mph - N/A Rain Rain
2:00 AM 53.6 °F 51.8 °F 94% 29.83 in 3.1 mi West 19.6 mph - N/A Rain Rain
2:30 AM 51.8 °F 51.8 °F 100% 29.83 in - WNW 13.8 mph - N/A Rain Rain
3:00 AM 52 °F 52 °F 99% 29.82 in 6 mi West 13.8 mph - -  
3:00 AM 51.8 °F 51.8 °F 100% 29.83 in 6.2 mi West 13.8 mph - N/A   Unknown
3:30 AM 51.8 °F 50.0 °F 94% 29.80 in 6.2 mi West 9.2 mph - N/A   Unknown
4:00 AM 51.8 °F 50.0 °F 94% 29.83 in 6.2 mi West 8.1 mph - N/A   Mostly Cloudy
4:30 AM 51.8 °F 50.0 °F 94% 29.83 in 6.2 mi WSW 9.2 mph - N/A   Mostly Cloudy
5:00 AM 53.6 °F 51.8 °F 94% 29.83 in 6.2 mi SSW 9.2 mph - N/A   Mostly Cloudy
5:30 AM 53.6 °F 51.8 °F 94% 29.83 in 6.2 mi SW 8.1 mph - N/A   Mostly Cloudy
6:00 AM 52 °F 50 °F 91% 29.85 in 3 mi SW 8.1 mph - -  
6:00 AM 51.8 °F 50.0 °F 94% 29.83 in - WSW 9.2 mph - N/A   Unknown
6:30 AM 51.8 °F 50.0 °F 94% 29.83 in 6.2 mi SW 12.7 mph - N/A Rain Rain
7:00 AM 51.8 °F 50.0 °F 94% 29.83 in 6.2 mi SW 10.4 mph - N/A   Mostly Cloudy
7:30 AM 51.8 °F 50.0 °F 94% 29.86 in 5.0 mi SSW 9.2 mph - N/A Rain Rain Showers
8:00 AM 53.6 °F 50.0 °F 88% 29.86 in 5.0 mi SW 8.1 mph - N/A Rain Rain Showers
8:30 AM 53.6 °F 50.0 °F 88% 29.86 in 5.0 mi SW 10.4 mph - N/A Rain Rain Showers
9:00 AM 55 °F 51 °F 81% 29.86 in 4 mi SW 12.7 mph - - Rain Light Rain Showers
9:00 AM 55.4 °F 51.8 °F 88% 29.86 in 5.0 mi SW 11.5 mph - N/A Rain Rain Showers
9:30 AM 53.6 °F 51.8 °F 94% 29.86 in 3.7 mi WSW 15.0 mph - N/A Rain Rain Showers
10:00 AM 55.4 °F 51.8 °F 88% 29.89 in 3.7 mi SW 13.8 mph - N/A Rain Rain Showers
10:30 AM 55.4 °F 51.8 °F 88% 29.89 in 3.7 mi WSW 16.1 mph - N/A Rain Rain Showers
11:00 AM 53.6 °F 51.8 °F 94% 29.89 in 3.7 mi SW 13.8 mph - N/A Rain Rain Showers
11:30 AM 55.4 °F 51.8 °F 88% 29.89 in 5.0 mi SW 15.0 mph - N/A   Partly Cloudy
12:00 PM 58 °F 53 °F 78% 29.86 in 5 mi SW 15.0 mph - -   Partly Cloudy
12:00 PM 57.2 °F 51.8 °F 82% 29.89 in 5.0 mi SW 15.0 mph - N/A   Partly Cloudy
12:30 PM 59.0 °F 53.6 °F 82% 29.86 in 5.0 mi SW 12.7 mph - N/A   Partly Cloudy
1:00 PM 55.4 °F 51.8 °F 88% 29.86 in 5.0 mi SW 15.0 mph - N/A   Partly Cloudy
1:16 PM 57.2 °F 53.6 °F 88% 29.83 in 5.0 mi SW 15.0 mph - N/A Thunderstorm Thunderstorm
1:30 PM 57.2 °F 53.6 °F 88% 29.83 in 5.0 mi SW 15.0 mph - N/A Thunderstorm Thunderstorm
2:00 PM 60.8 °F 53.6 °F 77% 29.83 in 6.2 mi WSW 23.0 mph - N/A   Partly Cloudy
2:30 PM 59.0 °F 53.6 °F 82% 29.83 in 6.2 mi WSW 19.6 mph - N/A   Partly Cloudy
3:00 PM 57 °F 53 °F 84% 29.84 in 4 mi West 15.0 mph - - Rain Heavy Rain
3:00 PM 57.2 °F 51.8 °F 82% 29.86 in 3.7 mi West 13.8 mph - N/A Rain Heavy Rain
3:30 PM 55.4 °F 53.6 °F 94% 29.86 in 6.2 mi WSW 16.1 mph - N/A   Partly Cloudy
4:00 PM 55.4 °F 51.8 °F 88% 29.86 in 6.2 mi WSW 15.0 mph - N/A   Partly Cloudy
4:30 PM 55.4 °F 51.8 °F 88% 29.89 in 6.2 mi SW 12.7 mph - N/A   Partly Cloudy
5:00 PM 53.6 °F 50.0 °F 88% 29.89 in 6.2 mi SW 12.7 mph - N/A   Partly Cloudy
5:30 PM 53.6 °F 50.0 °F 88% 29.92 in 6.2 mi SW 9.2 mph - N/A   Partly Cloudy
6:00 PM 54 °F 50 °F 81% 29.92 in 6 mi SSW 8.1 mph - -   Clear
6:00 PM 53.6 °F 50.0 °F 88% 29.92 in 6.2 mi SSW 8.1 mph - N/A   Partly Cloudy
6:30 PM 55.4 °F 51.8 °F 88% 29.92 in 6.2 mi West 5.8 mph - N/A   Partly Cloudy
7:00 PM 55.4 °F 53.6 °F 94% 29.92 in 6.2 mi SW 10.4 mph - N/A   Partly Cloudy
7:30 PM 55.4 °F 51.8 °F 88% 29.95 in 6.2 mi WSW 15.0 mph - N/A   Partly Cloudy
8:00 PM 53.6 °F 51.8 °F 94% 29.95 in 6.2 mi SW 11.5 mph - N/A   Partly Cloudy
8:30 PM 53.6 °F 51.8 °F 94% 29.98 in 6.2 mi SW 12.7 mph - N/A   Partly Cloudy
9:00 PM 54 °F 51 °F 86% 29.99 in 6 mi SW 11.5 mph - -   Mostly Cloudy
9:00 PM 53.6 °F 51.8 °F 94% 29.98 in 6.2 mi WSW 11.5 mph - N/A   Partly Cloudy
9:30 PM 53.6 °F 50.0 °F 88% 29.98 in 6.2 mi SW 11.5 mph - N/A   Partly Cloudy
10:00 PM 53.6 °F 50.0 °F 88% 29.98 in 5.0 mi SW 10.4 mph - N/A   Partly Cloudy
10:30 PM 55.4 °F 50.0 °F 82% 30.01 in 6.2 mi SW 9.2 mph - N/A Rain Light Rain
11:00 PM 53.6 °F 50.0 °F 88% 30.01 in 5.0 mi WSW 6.9 mph - N/A   Partly Cloudy
11:30 PM 53.6 °F 50.0 °F 88% 30.01 in 5.0 mi WSW 10.4 mph - N/A Rain Light Rain